[[{"header":{"parameterUnit":"m.s-1","parameterCategory":1,"la1":30.2992,"la2":30.254,"lo1":-89.0895,"lo2":-89.0443,"dy":0.0025,"dx":0.0025,"nx":19,"ny":19,"refTime":"2026-05-09T09:00:00:Z","depth":0,"parameterNumber":2,"parameterNumberName":"U-component_of_WINDS"},"data":[0,0,0,-1.2499,-1.2505,-1.2816,-1.2817,-1.3146,-1.3148,0,0,0,0,0,0,0,0,0,0,0,-1.2366,-1.2366,-1.2499,-1.2505,-1.2815,-1.2817,-1.3146,-1.3148,0,0,0,0,0,0,0,0,0,0,0,-1.2365,-1.2366,-1.2367,-1.2506,-1.2815,-1.2817,-1.3145,-1.2935,0,0,0,0,0,0,0,0,0,0,-1.2645,-1.2481,-1.2366,-1.2367,-1.2508,-1.2815,-1.2818,-1.2926,-1.2948,-1.2976,0,-1.299,0,-1.3074,-1.3166,-1.3167,0,0,0,-1.2536,-1.2462,-1.2584,-1.2367,-1.251,-1.2814,-1.2684,-1.2939,-1.2964,-1.3005,-1.2995,-1.3009,-1.3079,-1.3168,-1.3169,-1.3227,-1.3225,0,0,-1.2519,-1.2399,-1.2566,-1.2598,-1.2546,-1.2674,-1.2693,-1.2955,-1.2936,-1.2996,-1.3018,-1.3085,-1.3169,-1.3171,-1.3228,-1.3226,0,0,0,-1.2449,-1.2385,-1.2502,-1.2582,-1.2643,-1.2682,-1.2705,-1.2925,-1.2973,-1.3022,-1.3089,-1.3171,-1.3174,-1.3229,-1.3227,-1.3049,0,0,0,-1.244,-1.2345,-1.2493,-1.2422,-1.2637,-1.2788,-1.2667,-1.2955,-1.2989,-1.3087,-1.3171,-1.3177,-1.3231,-1.3228,-1.3057,-1.2983,0,0,0,-1.2359,-1.2336,-1.2367,-1.2415,-1.2545,-1.2787,-1.2851,-1.2965,-1.3027,-1.3167,-1.3177,-1.3232,-1.3229,-1.3064,-1.2995,-1.296,0,0,0,-1.2238,-1.2204,-1.2362,-1.235,-1.2541,-1.2675,-1.2851,-1.2957,-1.3056,-1.3172,-1.3231,-1.3227,-1.3066,-1.3002,-1.2966,-1.2905,-1.2869,0,0,-1.2128,-1.2187,-1.219,-1.234,-1.2414,-1.2638,-1.2688,-1.2893,-1.3017,-1.315,-1.3153,-1.3054,-1.2996,-1.2961,-1.272,-1.269,0,0,0,-1.2114,-1.2113,-1.216,-1.2249,-1.2405,-1.2533,-1.2743,-1.282,-1.2939,-1.3061,-1.3039,-1.3008,-1.2993,-1.2968,-1.2943,-1.2936,-1.3213,-1.3213,-1.3213,-1.178,-1.1943,-1.1958,-1.2156,-1.224,-1.2459,-1.2542,-1.2682,-1.2821,-1.2813,-1.2851,-1.2685,-1.2652,-1.2634,-1.2625,-1.2837,-1.2836,-1.2836,-1.2835,-1.163,-1.1653,-1.1841,-1.1921,-1.2093,-1.2163,-1.2374,-1.247,-1.2559,-1.267,-1.2664,-1.2765,-1.2597,-1.2597,-1.2823,-1.2825,-1.2827,-1.2828,-1.2829,-1.1424,-1.1463,-1.1559,-1.1704,-1.1799,-1.2004,-1.2081,-1.2237,-1.2384,-1.2379,-1.2434,-1.2437,-1.2456,-1.2396,-1.2395,-1.2395,-1.2394,-1.2394,-1.2393,-1.117,-1.1284,-1.133,-1.1495,-1.1573,-1.1695,-1.1917,-1.1999,-1.2128,-1.2235,-1.2236,-1.2371,-1.2553,-1.2591,-1.2385,-1.2386,-1.2387,-1.2388,-1.2389,-1.0945,-1.1022,-1.1091,-1.1169,-1.1377,-1.1459,-1.166,-1.1812,-1.1902,-1.1935,-1.2077,-1.2187,-1.2257,-1.2278,-1.231,-1.2044,-1.2044,-1.2044,-1.2044,-1.0767,-1.082,-1.0927,-1.1041,-1.1172,-1.136,-1.1433,-1.1607,-1.1799,-1.1865,-1.1928,-1.1987,-1.2002,-1.2064,-1.2089,-1.2122,-1.1813,-1.1813,-1.1813,-1.0636,-1.0709,-1.074,-1.0929,-1.1105,-1.1251,-1.1324,-1.1448,-1.1682,-1.1807,-1.1919,-1.1928,-1.2026,-1.205,-1.2168,-1.2204,-1.2268,0,0]},{"header":{"parameterUnit":"m.s-1","parameterCategory":1,"la1":30.2992,"la2":30.254,"lo1":-89.0895,"lo2":-89.0443,"dy":0.0025,"dx":0.0025,"nx":19,"ny":19,"refTime":"2026-05-09T09:00:00:Z","depth":0,"parameterNumber":3,"parameterNumberName":"V-component_of_WINDS"},"data":[0,0,0,4.5456,4.5458,4.5574,4.5574,4.5716,4.5718,0,0,0,0,0,0,0,0,0,0,0,4.5422,4.5424,4.5456,4.5459,4.5574,4.5575,4.5716,4.5718,0,0,0,0,0,0,0,0,0,0,0,4.5422,4.5423,4.5425,4.5459,4.5574,4.5575,4.5716,4.5629,0,0,0,0,0,0,0,0,0,0,4.5518,4.5489,4.5423,4.5425,4.546,4.5574,4.5575,4.5625,4.5635,4.5663,0,4.5692,0,4.5708,4.5727,4.5728,0,0,0,4.5456,4.5481,4.5512,4.5425,4.5461,4.5574,4.5521,4.5631,4.5641,4.5675,4.5694,4.57,4.571,4.5728,4.5729,4.5909,4.591,0,0,4.545,4.5442,4.5505,4.5519,4.5507,4.5518,4.5525,4.5637,4.5655,4.5695,4.5703,4.5712,4.5729,4.573,4.5908,4.5909,0,0,0,4.5433,4.5438,4.5466,4.5513,4.5535,4.5521,4.5529,4.565,4.566,4.5704,4.5714,4.573,4.5732,4.5907,4.5908,4.5948,0,0,0,4.5429,4.5428,4.5464,4.546,4.5533,4.5595,4.554,4.5653,4.5666,4.5713,4.573,4.5733,4.5906,4.5908,4.5945,4.5966,0,0,0,4.5414,4.5426,4.5444,4.5459,4.551,4.5593,4.561,4.5656,4.5672,4.5728,4.5733,4.5905,4.5908,4.5942,4.5962,4.6011,0,0,0,4.5395,4.5475,4.5445,4.5538,4.5509,4.562,4.5609,4.5691,4.5745,4.5731,4.5906,4.5908,4.5941,4.5959,4.6008,4.605,4.6067,0,0,4.5491,4.5486,4.5542,4.5518,4.5634,4.5603,4.5722,4.5775,4.5785,4.5866,4.587,4.5946,4.5961,4.601,4.6174,4.6188,0,0,0,4.557,4.561,4.5642,4.5695,4.5742,4.5782,4.582,4.584,4.591,4.5827,4.5979,4.5988,4.6017,4.6037,4.6049,4.6073,4.5918,4.5918,4.5918,4.5691,4.5705,4.5798,4.5826,4.5877,4.5917,4.5958,4.5991,4.5986,4.6022,4.6045,4.6143,4.6166,4.6175,4.62,4.607,4.6071,4.6071,4.6071,4.5832,4.5889,4.5887,4.5975,4.5988,4.606,4.6101,4.6096,4.6163,4.6126,4.6152,4.6108,4.619,4.6213,4.6074,4.6073,4.6073,4.6073,4.6073,4.591,4.594,4.5968,4.6048,4.6107,4.6131,4.6198,4.6206,4.6213,4.624,4.6263,4.6263,4.6261,4.6252,4.6252,4.6252,4.6253,4.6253,4.6253,4.5979,4.6009,4.6066,4.6126,4.6162,4.6211,4.6254,4.6288,4.6327,4.6327,4.6327,4.6317,4.6198,4.6166,4.6258,4.6257,4.6257,4.6256,4.6256,4.611,4.6083,4.6171,4.6208,4.6279,4.6337,4.635,4.6419,4.6448,4.648,4.6467,4.6378,4.6371,4.6362,4.6335,4.6465,4.6465,4.6466,4.6466,4.6173,4.6174,4.6267,4.6326,4.6384,4.6406,4.65,4.6535,4.6565,4.6583,4.6567,4.6533,4.6524,4.6522,4.651,4.6484,4.665,4.665,4.665,4.6254,4.6261,4.6342,4.6377,4.6434,4.6481,4.6571,4.6634,4.6662,4.6658,4.6597,4.6589,4.6536,4.6519,4.6507,4.6487,4.6441,0,0]}]]